Tracking 18793 objects as of 24-September-2017
HD Live streaming from Space Station
objects crossing your sky now

GONETS D1 6

Track GONETS D1 6 now!
10-day predictions
GONETS D1 6 is classified as:


NORAD ID: 24730
Int'l Code: 1997-006F
Perigee: 1,418.2 km
Apogee: 1,422.1 km
Inclination: 82.6 °
Period: 114.1 minutes
Semi major axis: 7791 km
RCS: 0.9337 m2 (medium)
Launch date: February 14, 1997
Source: Commonwealth of Independent States (former USSR) (CIS)
Launch site: PLESETSK MISSILE AND SPACE COMPLEX (PKMTR)
aabbcc
Your satellite tracking list
Your tracking list is empty





NASA's NSSDC Master Catalog

Two Line Element Set (TLE):
1 24730U 97006F   17267.00424510 -.00000019  00000-0 -16270-3 0  9998
2 24730  82.6074 123.9566 0002455   7.8634 352.2506 12.62412289949621
Source of the keplerian elements: AFSPC